www.pogodaiklimat.ru

Погода и климат >> Архив погоды >> Россия >> Мурманская область >> Мончегорск


ПОГОДА в Мончегорске

  • Прогноз погоды в Мончегорске
  • Монитор погоды в Мончегорске

АРХИВ ПОГОДЫ в Мончегорске

Время (UTC), дата Ветер
(напр.,м/с)
 
Видим.   Явления Облачность Т
(С)
Тd
(С)
f
(%)
Тe
(С)
Тes
(С)
Комфортность P
(гПа)
Po
(гПа)
Тmin
(С)
Tmax
(С)
R
(мм)
R24
(мм)
S
(см)
12 9.07 СВ 5 50 км 10/10 1000 м
[Sc]
+13.6 +6.8 63 +12 +12 1013.6 997.9
18 9.07 С 7-9
{12}
10 км {ливн. осадки} 10/10 300 м
[Cb cap]
+8.9 +7.4 90 +5 +5 1014.4 998.4 +14.5 0.0
00 10.07 С 4-5
{10}
10 км {ливн. осадки} 9/9 600 м
[Cb cap]
+6.8 +4.8 87 +3 +3 1016.2 1000.1
06 10.07 С 7-9
{10}
20 км {ливн. осадки} 9/9 600 м
[Cb cap]
+7.2 +4.0 80 +3 +3 1016.2 1000.1 +5.3 0.1
12 10.07 С 6-9
{11}
20 км 10/10 600 м
[Sc]
+8.9 +5.2 78 +5 +5 1015.5 999.5
18 10.07 С 7-9
{10}
50 км 9/9 1000 м
[Sc]
+8.0 +3.6 74 +4 +4 1015.2 999.1 +9.6
00 11.07 С 5 20 км 10/10 600 м
[Cb cap]
+5.7 +3.8 88 +1 +1 1014.1 997.9
06 11.07 С 5-8
{10}
20 км слаб. дождь {морось} 10/6 300 м
[Frnb As op]
+5.1 +4.8 98 0 +1 1012.8 996.6 +4.8 0.4
12 11.07 С 8-11
{13}
50 км {дождь} 10/10 600 м
[Cb cap]
+7.7 +4.7 81 +3 +3 1011.7 995.7
18 11.07 С 8-10
{12}
20 км 9/9 600 м
[Sc]
+7.4 +4.4 81 +2 +2 1011.1 995.1 +8.1 0.0
00 12.07 С 10-13
{15}
20 км 10/8 300 м
[Cb cap Ac und]
+6.2 +4.4 88 0 0 1009.2 993.1
06 12.07 С 11-15
{15}
20 км 9/9 600 м
[Sc]
+7.6 +4.6 81 +2 +2 1009.0 993.0 +6.1
12 12.07 С 9-15
{17}
50 км в посл. час ливневой дождь 10/10 600 м
[Cb cap]
+8.5 +5.5 81 +4 +4 1008.9 993.0
18 12.07 СВ 4-6
{10}
4000 м в посл. час ливневой дождь 10/10 300 м
[Cb cap]
+6.5 +6.2 98 +3 +3 1011.7 995.6 +8.9 2
00 13.07 С 3 20 км осадки на расстоянии 9/9 600 м
[Cb cap]
+6.2 +6.0 99 +3 +3 1013.0 996.9
06 13.07 С 2 50 км 10/10 300 м
[Cb cap]
+7.9 +5.9 87 +6 +6 1013.4 997.4 +6.0
12 13.07 СЗ 4 50 км 10/10 600 м
[Cb cap]
+10.4 +6.7 78 +8 +8 1012.7 996.8
18 13.07 С 4-6
{10}
50 км в посл. час ливневой дождь 10/10 300 м
[Cb cap]
+8.3 +7.0 92 +5 +5 1013.4 997.4 +11.7 0.0
00 14.07 С 3 10 км {ливн. осадки} 10/10 300 м
[Cb cap]
+6.8 +6.2 96 +4 +4 1013.9 997.8
06 14.07 С 5 10 км в посл. час ливневой дождь 10/10 300 м
[Cb cap]
+7.4 +6.7 95 +3 +3 1013.9 997.8 +6.6 0.2
12 14.07 С 6 20 км 9/9 600 м
[Sc]
+9.4 +6.6 83 +6 +6 1014.1 998.1
18 14.07 СВ 4 20 км 10/10 600 м
[Sc]
+9.2 +5.7 79 +6 +6 1014.2 998.2 +10.0
00 15.07 СВ 2 50 км 10/10 600 м
[Sc]
+7.3 +5.3 87 +5 +5 1014.2 998.1
06 15.07 СВ 2 50 км 10/10 600 м
[Sc]
+8.7 +4.8 76 +7 +7 1014.3 998.3 +6.8
12 15.07 СЗ 3 50 км 9/9 1000 м
[Cu Sc]
+12.2 +6.8 70 +11 +11 1013.6 997.8
18 15.07 СВ 3 50 км 9/9 600 м
[Sc]
+11.6 +7.7 77 +10 +10 1013.6 997.8 +13.2
00 16.07 С 3 10 км в посл. час ливневой дождь 10/10 300 м
[Cb cap]
+7.6 +7.5 99 +5 +5 1015.2 999.1

 

Местоположение метеостанции Мончегорск (Мурманская область, Россия): широта 67.93 долгота 32.95 высота над уровнем моря 132 м.

В архиве по умолчанию представлена погода в Мончегорске за последнюю неделю. Архивные данные за месяц целиком и за предыдущие месяцы, начиная с января 2011 года, Вы можете получить, выбрав интересующий диапазон дат из раскрывающегося списка и нажав кнопку "Ввод!".


*Определитесь, кто Вы:
робот инопланетянин человек

Внимание! Время в таблицах - всемирное. Для получения местного времени необходимо прибавить поправку, которая равна 3 ч.

Смотрите также архив погоды в соседних городах и на ближайших метеорологических станциях:

Погода в Апатитах (Мурманская область, Россия) (46 км)
Погода в Кировске (Мурманская область, Россия) (46 км)
Погода в Пулозере (Мурманская область, Россия) (49 км)
Погода в Зашейке (Мурманская область, Россия) (61 км)
Погода в Умбозере (Мурманская область, Россия) (73 км)
Погода в Мурманске аэропорт (Мурманская область, Россия) (75 км)
Погода в Ловозере (Мурманская область, Россия) (87 км)
Погода в Падуне (Мурманская область, Россия) (87 км)
Погода в Кандалакше (Мурманская область, Россия) (90 км)
Погода в Порту Кандалакша (Мурманская область, Россия) (92 км)

Пояснения к столбцам:

Ветер - указаны скорость ветра в м/с - средняя за 10 мин, порывы в срок и между сроками (в фигурных скобках) и направление, откуда дует ветер: С - северный, СВ - северо-восточный, В - восточный, ЮВ - юго-восточный, Ю - южный, ЮЗ - юго-западный, З - западный, СЗ - северо-западный.
Видимость - горизонтальная дальность видимости в метрах или километрах. При видимости от 1 до 10 км при отсутствии осадков обычно наблюдается дымка, при ухудшении видимости до 1 км и менее - туман. В сухую погоду видимость может ухудшаться дымом, пылью или мглою.
Явления - указаны атмосферные явления, наблюдавшиеся в срок или в последний час перед сроком; фигурными скобками обозначены явления, наблюдавшиеся между сроками (за 1-3 часа до срока); квадратными скобками обозначены град или гололедные отложения с указанием их диаметра в мм.
Облачность - указаны через наклонную черту общая и нижняя облачность в баллах и высота нижней границы облаков в метрах; квадратными скобками обозначены формы облаков: Ci - перистые, Cs - перисто-слоистые, Cc - перисто-кучевые, Ac - высококучевые, As - высокослоистые, Sc - слоисто-кучевые, Ns - слоисто-дождевые, Cu - кучевые, Cb - кучево-дождевые. Подробнее классификацию облаков см. в Атласе облаков (PDF).
T - Температура воздуха - температура, измеренная на высоте 2 м над землей.
Td - Температура точки росы - температура, при понижении до которой содержащийся в воздухе водяной пар достигнет насыщения.
f - Относительная влажность воздуха - влажноcть воздуха, измеренная на высоте 2 м над землей.
Te - Эффективная температура - температура, которую ощущает одетый по сезону человек в тени. Характеристика душности погоды. При расчете учитывается влияние влажности воздуха и скорости ветра на теплоощущения человека.
Tes - Эффективная температура на солнце - температура, которую ощущает человек, с поправкой на солнечный нагрев. Характеристика знойности погоды. Зависит от высоты солнца над горизонтом, облачности и скорости ветра. Ночью, в пасмурную погоду, а также при ветре 12 м/с и более поправка равна нулю.
P - Атмосферное давление - приведенное к уровню моря атмосферное давление.
Po - Атмосферное давление - измеренное на уровне метеостанции атмосферное давление.
Tmin - Минимальная температура - минимум температуры воздуха на высоте 2 м над землей.
Tmax - Максимальная температура - максимум температуры воздуха на высоте 2 м над землей.
R - Количество осадков - Количество выпавших осадков за период времени, мм. При наведении курсора мыши на число - период времени, за который выпало указанное количество осадков.
R24 - Количество осадков - Количество выпавших осадков за 24 часа, мм.
S - Снежный покров - Высота снежного покрова, см. При наведении курсора мыши на число - состояние снежного покрова и степень покрытия местности в баллах.